Flag for Brazil Weather past 2 weeks in Porto Velho, Rondônia, Brazil

Now
73 °F

Clear.


Feels Like: 72 °F
Forecast: 72 / 92 °F
Wind: No wind

Location: Porto Velho Aeroporto

Current Time: Oct 2, 2014 at 12:47:59 AM

Latest Report: Oct 2, 2014 at 12:00 AM


Visibility: 10 mi

Pressure: 29.89 "Hg

Humidity: 89%

Dew point: 70 °F

Location of Porto VelhoLocation

Historic Weather in Porto Velho — Graph

°F

Porto Velho temperature yesterday

Maximum temperature yesterday: 95 °F (at 3:00 PM)
Minimum temperature yesterday: 72 °F (at 3:00 AM)
Average temperature yesterday: 80 °F

Past Weeks' High & Low Weather Summary

 TemperatureHumidityPressure
High97 °F (Sep 24, 1:00 PM)94% (Sep 17, 1:00 AM)29.98 "Hg (Sep 17, 1:00 AM)
Low72 °F (Sep 18, 2:00 AM)36% (Sep 28, 4:00 PM)29.71 "Hg (Sep 19, 5:00 PM)
Average80 °F74%29.85 "Hg
* Reported Sep 16 11:00 PM — Oct 1 11:00 PM, Porto Velho, Weather by CustomWeather, © 2014

Note: Actual official high and low records may vary slightly from our data, if they occured in-between our weather recording intervals... More about our weather records

Advertising

Porto Velho weather history for previous 24 hours

 ConditionsComfort  
Time TempWeatherWind HumidityBarometerVisibility
11:00 PM
Oct 1
73 °FClear.No wind89%29.89 "Hg10 mi
10:00 PM73 °FClear.2 mph89%29.86 "Hg10 mi
9:00 PM75 °FPassing clouds.6 mph78%29.86 "HgN/A
8:00 PM75 °FFog.No wind83%29.80 "Hg3 mi
7:00 PM77 °FLight rain. Passing clouds.9 mph74%29.83 "Hg3 mi
6:00 PM81 °FScattered clouds.7 mph66%29.83 "HgN/A
5:00 PM84 °FScattered clouds.7 mph62%29.80 "HgN/A
4:00 PM91 °FScattered clouds.9 mph46%29.77 "HgN/A
3:00 PM95 °FScattered clouds.No wind39%29.80 "HgN/A
2:00 PM93 °FScattered clouds.7 mph44%29.83 "HgN/A
1:00 PM93 °FScattered showers. Scattered clouds.3 mph44%29.89 "HgN/A
12:00 PMN/AScattered clouds.N/AN/A29.92 "HgN/A
11:00 AM90 °FPassing clouds.5 mph52%29.95 "HgN/A
10:00 AM88 °FSunny.2 mph55%29.95 "Hg10 mi
9:00 AM84 °FSunny.2 mph62%29.95 "Hg10 mi
8:00 AM79 °FSunny.5 mph74%29.92 "Hg10 mi
7:00 AM73 °FPassing clouds.No wind94%29.89 "HgN/A
6:00 AM72 °FPassing clouds.No wind94%29.89 "HgN/A
5:00 AM72 °FClear.No wind94%29.86 "Hg10 mi
4:00 AM72 °FClear.No wind88%29.83 "Hg10 mi
3:00 AM72 °FClear.No wind94%29.83 "Hg10 mi
2:00 AM73 °FClear.2 mph94%29.83 "Hg10 mi
1:00 AM73 °FClear.No wind94%29.83 "Hg10 mi
12:00 AM75 °FPassing clouds.5 mph89%29.86 "HgN/A
Weather by CustomWeather, © 2014

See weather overviewHow to use our weather pages